Regional Weather Roundup
Issued by NWS

Home | Current Version | Previous Version | Graphics & Text | Print | Product List | Glossary On
Versions: 1 2 3 4 5 6 7 8 9 10 11 12 13 14 15 16 17 18 19 20 21 22 23 24 25 26 27 28 29 30 31 32 33 34 35 36 37 38 39 40 41 42 43 44 45 46 47 48 49 50
000
ASUS43 KLSX 190259
RWRMO

WEATHER SUMMARY FOR MISSOURI
NATIONAL WEATHER SERVICE SPRINGFIELD MO
900 PM CST THU DEC 18 2014

NOTE: "FAIR" INDICATES FEW OR NO CLOUDS BELOW 12,000 FEET WITH NO
       SIGNIFICANT WEATHER AND/OR OBSTRUCTIONS TO VISIBILITY.
       CURRENT SKY AND/OR WEATHER CONDITIONS ARE NOT AVAILABLE FOR
       CHILLICOTHE AND FARMINGTON.

MOZ001>031-035>038-043-044-053-054-190400-
...NORTHERN AND WESTERN MISSOURI...

CITY           SKY/WX    TMP DP  RH WIND       PRES   REMARKS
KANSAS CTY INT CLOUDY    31  29  92 E6        30.25R FOG     WCI  25
KANSAS C DTWN  CLOUDY    33  30  88 E6        30.26R WCI  28
LEE`S SUMMIT   CLOUDY    32  29  88 CALM      30.25R
ST JOSEPH      CLOUDY    31  28  89 E5        30.26S WCI  26
CHILLICOTHE      N/A     31  26  82 CALM      30.28R
KIRKSVILLE     CLOUDY    29  27  92 E5        30.26S WCI  24

$$
MOZ066>068-077>081-088>096-101>105-190400-
...SOUTHWEST MISSOURI...

CITY           SKY/WX    TMP DP  RH WIND       PRES   REMARKS
SPRINGFIELD    CLOUDY    38  36  92 NE3       30.20R
JOPLIN         CLOUDY    37  36  96 N3        30.23R FOG

$$
MOZ032>034-039>042-045>050-055>058-069>072-190400-
...CENTRAL MISSOURI...

CITY           SKY/WX    TMP DP  RH WIND       PRES   REMARKS
COLUMBIA       CLOUDY    32  30  92 E6        30.25S WCI  26
JEFFERSON CITY CLOUDY    34  30  85 E6        30.27R WCI  29
ROLLA          FOG       33  32  96 E6        30.22R VSB 3/4 WCI  28
SEDALIA        CLOUDY    33  32  96 NE6       30.25R FOG     WCI  28
WARRENSBURG    CLOUDY    32  32 100 NE3       30.25S FOG
OSAGE BEACH    CLOUDY    34  32  93 NE3       30.23S VSB 1/2

$$
MOZ051-052-059>065-190400-
...EAST CENTRAL MISSOURI...

CITY           SKY/WX    TMP DP  RH WIND       PRES   REMARKS
ST LOUIS INTL  CLOUDY    34  25  69 NE5       30.28S WCI  30
SPIRIT OF STL  CLOUDY    33  27  78 NE3       30.27S
ST CHARLES     CLOUDY    32  26  78 NE6       30.29R WCI  26

$$
MOZ072>076-082>087-097>100-106>115-190400-
...SOUTH CENTRAL AND SOUTHEAST MISSOURI...

CITY           SKY/WX    TMP DP  RH WIND       PRES   REMARKS
CAPE GIRARDEAU CLOUDY    36  33  89 CALM      30.27R
FARMINGTON     CLOUDY    34  34 100 N5        30.26R VSB 3/4 WCI  30
POPLAR BLUFF   CLOUDY    37  32  82 NE3       30.25S
WEST PLAINS    FOG       36  35  96 E3        30.22S VSB 1/2

$$



USA.gov is the U.S. government's official web portal to all federal, state and local government web resources and services.